Theta_e
288 288 287 287 287 286 286 286 286 285 284 283 283 282 282 281 281 281 281 280 279 280 281 280 280 280 279 280 280 280 279 279 276 278 281 282 282 282 282 282 282 282 282
288 288 287 287 287 286 285 286 286 285 284 283 282 281 281 281 281 280 279 279 279 278 279 279 279 279 278 279 279 278 278 279 277 275 278 280 280 280 280 279 280 281 280
288 287 287 286 286 285 286 286 286 285 284 283 282 281 280 280 279 279 278 278 278 278 279 278 278 278 277 277 277 277 278 278 278 277 276 279 278 279 278 278 278 278 280
286 286 286 286 285 285 285 285 285 284 283 282 281 281 280 279 278 278 278 278 278 278 279 278 278 277 276 276 275 276 277 276 277 276 276 275 276 277 276 274 273 276 275
285 285 285 286 285 285 285 285 284 284 283 282 281 279 279 278 278 278 278 278 278 278 278 278 278 277 276 276 276 275 275 275 275 275 274 273 273 272 272 274 272 272 273
284 284 285 284 284 284 284 283 283 283 282 282 281 279 278 278 279 279 279 277 277 277 277 277 277 276 276 277 277 277 277 275 275 274 273 272 271 273 273 272 270 269 267
284 284 284 283 283 283 283 283 282 282 282 281 281 280 279 279 280 280 279 277 277 276 276 276 275 276 275 275 276 276 277 278 279 276 272 272 271 273 273 270 270 269 268
282 282 283 282 282 282 281 281 281 282 281 281 280 279 279 278 280 279 278 277 275 275 275 274 273 273 274 274 273 273 275 277 277 276 274 274 274 275 273 272 269 269 269
280 280 279 279 278 279 279 279 280 281 281 281 281 279 277 277 279 279 278 275 275 274 275 274 273 273 275 276 274 273 274 275 277 277 277 278 277 276 274 271 267 265 264
273 274 275 275 275 275 276 276 278 279 279 280 280 279 276 275 278 278 277 275 273 273 274 274 276 273 276 277 275 273 273 273 272 272 273 271 271 270 273 270 268 264 263
270 271 272 273 273 274 275 276 276 276 277 277 277 278 276 273 272 276 277 274 273 273 273 274 275 277 278 278 278 276 275 275 274 271 269 268 269 269 269 269 268 266 263
267 268 268 270 271 273 272 273 273 274 274 274 274 274 275 273 272 273 276 277 276 273 272 274 275 277 277 278 278 278 278 276 270 267 266 266 266 266 267 266 265 265 266
264 265 266 268 270 271 270 271 272 274 274 273 274 274 274 275 274 275 276 277 277 274 274 275 277 277 278 278 277 276 274 269 267 265 264 265 265 266 265 265 265 266 266
263 264 266 267 268 270 271 271 272 272 272 272 272 272 273 274 274 274 273 272 273 273 274 274 274 276 276 276 272 272 270 268 266 264 263 265 266 265 263 264 263 263 262
262 264 265 266 266 267 269 270 270 271 272 271 271 272 272 271 273 275 274 272 272 273 272 273 273 272 271 271 271 270 268 267 265 265 264 264 263 263 263 263 262 261 261
260 262 262 263 264 265 266 266 270 272 273 274 275 275 275 276 276 276 277 277 277 277 274 273 273 271 270 270 269 268 266 264 265 265 263 262 261 261 261 261 261 261 260
258 259 261 261 262 263 264 264 263 266 270 271 272 273 274 275 276 277 277 277 278 277 274 273 272 271 270 269 268 266 264 264 263 262 261 261 261 261 260 259 260 260 259
257 258 260 261 261 261 262 262 262 261 261 263 267 268 270 271 272 273 274 275 271 272 272 271 270 270 269 267 266 264 264 263 262 262 261 260 260 259 259 258 259 258 258
256 258 259 259 260 260 260 260 261 261 261 261 262 264 266 268 269 270 271 268 268 269 270 270 269 268 266 265 264 263 262 261 260 259 258 258 258 259 258 258 258 258 258
257 257 258 258 258 258 259 259 259 259 259 259 260 260 262 262 261 262 263 263 264 265 266 266 266 266 264 263 263 262 261 260 259 259 259 259 259 258 258 257 257 257 257
256 257 257 257 258 258 258 258 258 258 258 258 258 260 264 263 262 262 263 263 263 264 264 264 264 264 263 262 262 261 260 259 259 258 258 258 257 256 257 257 257 257 257
255 256 257 257 257 257 257 258 257 257 257 257 258 259 263 260 259 260 261 262 264 265 265 264 263 263 262 261 261 260 260 258 258 257 257 256 256 256 256 256 256 257 257
256 256 256 256 257 257 257 257 257 257 257 257 257 257 258 258 259 259 260 261 262 263 264 263 262 260 261 261 260 259 258 257 257 255 254 254 255 255 255 255 255 256 257
255 255 255 256 256 256 256 256 256 256 257 257 257 257 257 258 258 259 260 260 261 261 262 261 260 259 259 259 259 259 258 257 256 254 252 253 253 254 255 255 255 256 257
254 255 255 255 255 256 256 256 256 256 256 257 257 257 258 258 258 259 259 260 260 260 260 260 259 258 258 257 257 257 257 258 255 254 253 253 254 254 254 255 256 257 259
255 256 255 255 255 255 255 255 255 255 255 256 257 257 258 258 258 259 259 259 259 259 259 259 259 258 258 257 257 258 257 258 255 254 253 254 255 256 257 257 258 258 259
Wind_Speed
10 9 8 7 6 6 6 5 6 5 4 4 3 3 4 5 5 6 7 7 8 8 7 7 8 7 6 6 6 6 6 7 10 9 9 10 13 14 15 14 15 16 14
11 9 8 7 6 6 6 6 5 6 5 5 4 4 4 4 5 5 7 7 8 9 8 8 8 6 8 7 6 9 8 9 9 15 11 10 11 14 14 17 14 12 15
9 9 8 8 7 7 6 5 6 6 5 5 5 5 5 5 5 5 6 7 8 9 9 9 9 8 8 7 8 8 8 8 9 10 12 9 10 10 13 14 14 15 13
7 8 8 8 7 6 5 6 6 6 6 6 6 5 5 5 6 6 6 7 8 8 9 9 9 9 9 9 9 10 9 9 9 10 11 12 10 11 11 13 15 13 15
7 8 8 6 6 6 5 5 6 7 7 7 6 7 6 6 6 6 6 7 8 9 9 9 9 8 11 11 7 9 10 9 9 9 10 12 11 12 13 12 14 16 15
8 7 6 6 6 5 5 6 7 7 8 8 8 8 8 7 12 13 10 7 9 9 8 8 9 9 10 13 14 15 13 10 11 9 10 12 15 13 12 13 15 16 16
5 6 6 5 5 4 5 6 7 7 8 9 9 9 10 9 15 15 14 7 8 8 8 8 9 7 7 9 12 15 15 18 15 12 12 12 15 14 15 17 16 15 16
6 4 4 1 2 3 3 5 6 7 8 8 9 9 9 8 16 16 16 9 8 10 9 8 9 10 9 9 9 11 12 10 8 8 11 13 13 13 15 13 15 17 14
6 6 6 5 4 4 5 5 6 7 8 9 9 9 10 10 16 17 13 7 9 10 8 8 9 10 14 17 11 12 12 10 9 17 21 23 23 26 20 11 10 12 15
8 7 6 5 6 6 6 7 7 7 8 7 9 9 8 9 14 16 14 6 8 8 8 9 15 12 19 20 11 10 13 7 9 12 10 12 14 13 19 10 9 11 12
8 8 8 7 8 8 8 7 7 7 7 8 9 8 8 7 9 17 18 8 8 8 8 8 7 17 18 19 20 10 9 12 13 10 9 9 9 8 7 6 8 9 12
8 8 8 7 8 7 8 8 8 7 7 8 8 8 7 7 12 16 19 20 16 10 10 8 8 18 19 20 18 16 20 18 7 7 8 9 9 9 8 10 12 11 11
7 7 6 7 7 7 8 7 7 7 7 7 8 7 6 6 6 15 19 20 21 14 10 14 21 21 23 19 14 17 14 6 7 7 8 9 8 9 11 12 12 13 15
7 8 8 7 8 7 7 6 6 6 7 8 7 8 7 6 6 5 6 7 13 13 16 12 15 18 19 14 6 8 5 6 6 7 8 8 9 8 9 9 11 12 13
9 8 8 7 8 8 8 7 7 7 8 8 8 8 7 8 7 12 10 7 7 10 10 9 9 7 6 7 7 5 5 5 7 7 8 9 9 9 9 8 9 12 12
10 8 8 8 8 8 8 9 13 17 19 20 22 18 10 19 24 23 23 23 23 24 11 10 8 8 8 7 6 5 5 6 6 7 6 8 9 9 10 9 9 10 13
9 10 8 9 8 8 8 9 11 11 19 21 21 21 22 24 26 26 26 26 27 24 12 10 8 6 6 5 5 5 7 6 4 6 7 8 8 9 10 10 10 10 12
8 10 8 8 8 8 8 8 9 10 12 11 12 17 20 24 26 27 28 25 13 13 10 8 8 6 5 5 5 6 6 5 6 6 7 7 7 9 9 9 9 12 13
9 7 7 8 8 9 9 9 9 10 10 11 11 13 11 20 23 25 26 12 11 11 8 8 5 5 4 5 6 6 6 6 6 6 6 7 7 7 9 9 10 14 15
7 10 9 7 7 8 8 8 9 9 10 9 10 10 9 11 10 9 8 8 9 9 8 7 6 5 4 5 6 6 6 6 7 7 6 6 6 7 9 9 9 11 12
7 8 10 8 8 8 8 9 9 9 10 10 10 10 22 14 12 11 10 8 9 8 8 7 6 6 4 6 6 6 6 6 7 6 6 6 5 7 8 8 9 10 12
7 8 8 8 8 9 9 9 10 10 10 11 11 11 22 10 10 10 10 10 10 8 6 6 5 5 5 6 6 6 6 7 7 5 6 4 5 7 7 8 9 10 11
8 9 8 8 9 11 10 9 9 10 10 11 11 11 10 10 10 10 10 10 9 8 6 5 6 6 6 6 6 6 6 7 6 3 4 5 6 7 7 8 9 10 11
8 9 10 9 9 9 10 10 10 13 12 11 11 10 10 10 11 11 10 9 9 8 7 6 5 7 8 7 6 6 7 7 4 4 5 6 8 8 7 8 9 11 12
9 10 10 10 10 10 10 11 11 11 11 11 11 10 10 11 11 10 10 9 8 8 8 7 6 9 11 11 10 9 9 10 6 6 4 7 10 11 9 8 9 10 13
10 10 10 10 10 10 10 10 10 10 11 11 10 10 10 11 10 10 9 9 8 7 8 6 8 11 11 9 9 11 11 11 9 9 7 8 8 8 8 8 11 9 12
Wind_Direction
193 194 200 206 208 219 233 244 250 243 232 242 267 295 311 323 332 331 329 330 323 322 319 320 316 323 317 314 318 315 308 300 295 303 307 312 316 324 323 324 322 323 323
196 196 200 208 210 218 232 238 232 250 239 238 247 262 279 293 309 315 317 314 313 311 312 311 310 319 312 312 323 312 304 310 307 306 310 315 324 322 320 321 325 320 321
192 197 203 210 213 225 231 234 230 222 235 239 231 249 256 269 281 291 295 296 298 299 300 303 305 310 307 316 317 308 311 313 311 303 309 317 317 324 322 320 320 318 314
188 203 211 208 209 221 230 231 228 221 221 225 229 234 238 249 257 266 278 286 289 290 291 290 295 297 300 318 308 309 314 313 308 309 311 314 321 329 318 324 320 320 319
198 207 208 200 205 220 226 232 234 225 221 223 220 226 233 232 237 242 255 271 281 286 286 287 286 297 298 286 287 304 306 306 310 307 312 315 321 328 328 322 313 317 316
205 206 199 192 206 214 228 233 234 232 232 227 222 226 226 231 240 244 249 262 274 278 281 281 285 281 272 285 290 290 290 295 296 310 310 309 311 320 316 321 316 319 319
197 196 193 201 212 222 239 243 240 243 243 238 235 228 231 230 237 240 246 253 262 266 268 274 279 276 281 279 288 293 289 284 278 303 302 300 307 310 317 315 315 309 303
174 181 185 189 268 290 260 257 263 258 251 244 239 233 232 232 238 239 243 248 255 258 256 258 266 271 266 272 273 275 273 270 278 284 292 290 285 308 306 309 302 297 292
54 63 35 8 343 309 287 278 264 260 258 250 244 240 231 239 238 236 238 245 254 257 254 250 255 266 272 279 278 273 283 277 282 291 292 291 303 303 305 306 306 311 307
22 4 352 344 315 301 291 283 278 271 271 267 262 245 236 242 241 237 235 239 253 256 252 251 248 248 264 268 273 274 277 287 296 295 299 299 295 287 300 296 300 301 305
357 348 340 334 318 300 297 293 290 285 280 270 265 255 244 221 240 242 239 237 245 256 255 254 249 257 265 272 275 276 278 287 305 304 301 294 292 288 292 290 293 288 292
347 335 332 321 310 303 299 294 295 289 279 275 268 264 250 230 228 247 246 243 244 248 252 256 258 268 271 273 278 276 291 304 312 294 290 292 295 299 298 302 295 282 267
334 325 313 312 306 312 305 302 301 295 281 276 276 268 260 244 224 249 255 254 255 257 254 260 266 267 265 276 286 286 293 295 283 282 283 287 288 294 301 297 296 294 288
331 330 322 322 328 313 313 303 304 298 291 284 278 276 278 268 254 239 244 250 264 268 269 269 260 259 258 262 282 278 260 261 269 280 278 282 292 295 296 298 303 310 305
336 329 331 330 324 317 310 309 300 289 284 286 286 290 288 275 268 265 255 253 250 249 254 253 254 248 245 244 243 250 254 258 265 272 281 289 294 296 293 301 299 305 299
332 333 328 319 320 310 311 307 300 299 297 292 291 286 271 260 265 265 269 271 267 267 258 250 246 236 239 248 256 260 259 261 264 273 284 287 288 294 298 303 296 298 300
323 317 319 314 312 313 312 310 309 310 304 300 298 296 295 294 293 291 288 285 282 279 263 255 256 243 244 253 267 266 264 262 272 270 269 277 286 289 298 295 299 301 301
308 304 301 308 311 307 304 306 304 300 307 305 299 301 298 296 294 293 290 291 282 273 270 268 260 254 255 258 258 260 266 272 266 268 270 278 285 283 289 291 298 302 302
311 305 310 304 298 300 294 290 294 294 294 297 304 303 305 300 298 295 297 289 278 272 266 262 248 248 247 255 255 255 253 260 264 271 271 267 270 277 284 287 294 297 299
303 299 296 297 294 297 292 295 295 293 294 295 297 299 305 301 294 290 280 275 275 277 277 271 270 258 239 246 253 251 255 255 260 259 263 271 279 276 280 289 293 298 299
302 300 298 285 285 297 295 289 288 290 291 291 290 291 294 297 301 295 291 270 264 263 261 258 249 241 233 244 249 248 250 256 258 260 264 270 275 278 276 280 289 290 296
287 286 288 291 292 285 285 288 289 285 282 285 289 291 299 300 289 287 285 284 288 267 250 255 256 242 229 235 243 244 251 257 258 257 263 263 270 274 279 284 291 295 297
296 294 292 287 284 286 284 282 286 285 285 286 290 292 292 287 285 283 285 286 285 286 286 267 252 248 245 241 231 232 246 253 255 248 267 274 274 274 278 288 291 297 300
284 283 285 284 284 285 284 284 283 284 285 285 286 287 288 287 287 286 285 284 285 280 274 266 254 249 254 249 239 230 230 241 240 237 237 258 268 273 275 283 289 290 292
284 281 278 280 281 281 287 283 285 287 286 287 286 285 286 285 285 285 286 284 280 277 274 271 254 248 249 250 246 244 249 261 256 246 252 257 261 264 265 271 281 288 298
280 285 287 287 285 285 284 286 286 286 286 287 287 286 285 286 285 285 286 283 283 279 276 265 258 255 256 258 256 252 247 250 243 231 228 239 250 259 264 269 289 294 298